Погода в Ботропе

Германия     51°31′20″N   6°55′40″E
темп.,
°C
ветер,
м/с
пор.,
м/с
влажн.,
%
обл.,
%
осадки,
мм/ч
давл.,
гПа
погр.,
м
9 мая, вс
вс923:00+11ю3129219 0.0 1009254
02:00+12ю4129112 0.0 1008292
05:00+11ю31095100 0.0 1007209
08:00+14ююв41277100 0.0 1006333
11:00+21ю51158100 0.0 1004517
14:00+25ю61041100 0.0 10031438
17:00+26ююз6104795 0.0 10011683
20:00+22ююз41062100 0.0 1001946
10 мая, пн
пн1023:00+19ю5156457 0.0 1002830
02:00+16ююв2586100 0.0 1003175
05:00+19ююз51651100 0.0 10011495
08:00+18ю61459100 0.1 10041407
11:00+19ююз7125485 0.1 10051681
14:00+18зюз61060100 0.5 10081514
17:00+19зюз4751100 0.1 10081510
20:00+17зюз1359100 0.1 1009429
11 мая, вт
вт1123:00+15з0072100 0.1 100915
02:00+13ююз1193100 1.8 101035
05:00+12сз1296100 3.8 1009130
08:00+12всв2596100 6.9 1010337
11:00+12св2595100 0.7 1009399
14:00+13всв2588100 0.8 1010554
17:00+13всв2483100 0.1 1009531
20:00+13в1281100 0.1 1009340
12 мая, ср
ср1223:00+12всв1191100 0.1 101037
02:00+12всв1194100 0.3 101077
05:00+11всв0096100 0.1 100939
08:00+11сз1294100 0.3 1009242
11:00+12зсз3589100 0.6 1010677
14:00+12з4791100 1.5 1010507
17:00+12сз4878100 0.1 1010561
20:00+12сз3878100 0.1 1011495
13 мая, чт
чт1323:00+11сз3883100 0.0 1011424
02:00+10сз2588100 0.1 1011294
05:00+9сз2592100 0.1 1010295
08:00+9зсз3585100 0.1 1010380
11:00+12сз3472100 0.0 1009965
14:00+13сз2571100 0.1 1009790
17:00+14ссз2475100 0.3 1008694
20:00+12ссв1390100 0.9 1008108